Location: Holyhead Bay
(53.3667°N, 4.6667°W)
Time: 04:02:58
(UTC+00:00)

Cosmos 2360 Rocket - Pass Details

Date: 13 April 2021
Orbit: 834 x 845 km, 71.0° (Epoch: 18 May)

Event Time Altitude Azimuth Distance (km) Brightness Sun altitude
Rises 20:06:31 0° 327° (NNW) 3,417 6.5 -7.8°
Reaches altitude 10° 20:08:58 10° 327° (NNW) 2,477 5.7 -8.1°
Maximum altitude 20:14:40 80° 241° (WSW) 863 2.3 -8.9°
Drops below altitude 10° 20:20:18 10° 156° (SSE) 2,455 4.1 -9.6°
Enters shadow 20:21:11 - 155° (SSE) 2,788 4.4 -9.7°
